This is the latest recevied weather packets stored in our database for station/object VE6EN. If no packets are shown the sender has not sent any weather packets the latest 10 day(s).
| Time | Temp. | Humidity | Pressure | Rain* | Wind** | Luminosity | Snow |
|---|---|---|---|---|---|---|---|
| 1777771204 | 20° C | 27% | 1011.4 hPa | 0 mm | - | - | - |
| 1777770600 | 20° C | 29% | 1011.6 hPa | 0 mm | - | - | - |
| 1777770002 | 20.56° C | 28% | 1011.7 hPa | 0 mm | - | - | - |
| 1777769404 | 20.56° C | 29% | 1011.8 hPa | 0 mm | - | - | - |
| 1777768800 | 20° C | 29% | 1011.9 hPa | 0 mm | - | - | - |
| 1777768204 | 20° C | 31% | 1012 hPa | 0 mm | - | - | - |
| 1777767600 | 20° C | 30% | 1012.1 hPa | 0 mm | - | - | - |
| 1777767004 | 20.56° C | 28% | 1012.2 hPa | 0 mm | - | - | - |
| 1777766405 | 20.56° C | 28% | 1012.2 hPa | 0 mm | - | - | - |
| 1777765804 | 20.56° C | 31% | 1012.2 hPa | 0 mm | - | - | - |
| 1777765204 | 20.56° C | 31% | 1012.4 hPa | 0 mm | - | - | - |
| 1777764605 | 20.56° C | 30% | 1012.4 hPa | 0 mm | - | - | - |
| 1777764000 | 20.56° C | 30% | 1012.7 hPa | 0 mm | - | - | - |
| 1777763404 | 20° C | 32% | 1012.8 hPa | 0 mm | - | - | - |
| 1777762800 | 19.44° C | 31% | 1013 hPa | 0 mm | - | - | - |
| 1777762199 | 18.89° C | 34% | 1013.1 hPa | 0 mm | - | - | - |
| 1777761604 | 18.89° C | 32% | 1013.3 hPa | 0 mm | - | - | - |
| 1777761000 | 19.44° C | 31% | 1013.4 hPa | 0 mm | - | - | - |
| 1777760399 | 19.44° C | 34% | 1013.5 hPa | 0 mm | - | - | - |
| 1777759802 | 19.44° C | 34% | 1013.7 hPa | 0 mm | - | - | - |
| 1777759200 | 18.89° C | 36% | 1013.8 hPa | 0 mm | - | - | - |
| 1777758604 | 19.44° C | 34% | 1013.9 hPa | 0 mm | - | - | - |
| 1777758004 | 18.89° C | 34% | 1014.1 hPa | 0 mm | - | - | - |
| 1777757404 | 18.89° C | 35% | 1014.2 hPa | 0 mm | - | - | - |
| 1777756800 | 18.89° C | 36% | 1014.4 hPa | 0 mm | - | - | - |
* Rain latest hour (hover to see other rain measurements)
** Current wind speed in m/s (hover to see current wind gust speed)